Change the Weather History Date:

Sunday, September 28, 2014

  Actual Average Record
Temperature  
Mean Temperature 66 °F -  
Max Temperature 78 °F 70 °F 98 °F (2005)
Min Temperature 57 °F 55 °F 52 °F (1998)
Cooling Degree Days 1    
Growing Degree Days 16 (Base 50)    
Moisture  
Dew Point 57 °F    
Average Humidity 69    
Maximum Humidity 84    
Minimum Humidity 52    
Precipitation  
Precipitation 0.00 in - - ()
Sea Level Pressure  
Sea Level Pressure 29.90 in    
Wind  
Wind Speed 4 mph (NNW)    
Max Wind Speed 15 mph    
Max Gust Speed -    
Visibility 10 miles    
Events Rain    
Averages and records for this station are not official NWS values.
T = Trace of Precipitation, MM = Missing Value Source: NWS Daily Summary

Daily Weather History Graph

Daily Weather History Graph

Search for Another Location

Airport or City:

Trip Planner

Search our weather history database for the weather conditions in past years. The results will help you decide how hot, cold, wet, or windy it might be!

Date:

Astronomy

Sep. 28, 2014 Rise Set
Actual Time 6:48 AM PDT 6:44 PM PDT
Civil Twilight 6:23 AM PDT 7:09 PM PDT
Nautical Twilight 5:54 AM PDT 7:38 PM PDT
Astronomical Twilight 5:25 AM PDT 8:07 PM PDT
Moon 10:56 AM PDT (9/28) 9:43 PM PDT (9/28)
Length of Visible Light 12h 45m
Length of Day
11h 55m
Waxing Crescent, 20% of the Moon is Illuminated
Sep 28
Waxing Crescent
Oct 1
First Quarter
Oct 8
Full
Oct 15
Last Quarter
Oct 23
New

Hourly Weather History & Observations

Time (PDT) Temp. Dew Point Humidity Pressure Visibility Wind Dir Wind Speed Gust Speed Precip Events Conditions
12:56 AM 64.0 °F 57.0 °F 78% 29.84 in 10.0 mi Calm Calm - N/A   Clear
1:56 AM 61.0 °F 55.9 °F 83% 29.85 in 10.0 mi NNW 3.5 mph - N/A   Clear
2:56 AM 61.0 °F 55.0 °F 81% 29.85 in 10.0 mi North 5.8 mph - N/A   Clear
3:56 AM 59.0 °F 53.1 °F 81% 29.85 in 10.0 mi Calm Calm - N/A   Clear
4:25 AM 57.9 °F 53.1 °F 84% 29.85 in 10.0 mi Calm Calm - N/A   Mostly Cloudy
4:56 AM 60.1 °F 54.0 °F 80% 29.86 in 10.0 mi ENE 3.5 mph - N/A   Overcast
5:56 AM 64.0 °F 55.9 °F 75% 29.89 in 10.0 mi NNE 3.5 mph - N/A   Overcast
6:03 AM 64.0 °F 55.9 °F 75% 29.89 in 10.0 mi Calm Calm - N/A   Overcast
6:56 AM 64.0 °F 55.9 °F 75% 29.91 in 10.0 mi NNE 3.5 mph - N/A   Overcast
7:42 AM 64.9 °F 55.9 °F 73% 29.91 in 10.0 mi ENE 4.6 mph - N/A   Mostly Cloudy
7:56 AM 66.0 °F 57.0 °F 73% 29.92 in 10.0 mi NE 3.5 mph - N/A   Mostly Cloudy
8:56 AM 71.1 °F 57.0 °F 61% 29.93 in 10.0 mi North 3.5 mph - N/A   Scattered Clouds
9:56 AM 73.9 °F 57.9 °F 57% 29.93 in 10.0 mi Variable 4.6 mph - N/A   Scattered Clouds
10:56 AM 75.9 °F 57.9 °F 54% 29.93 in 10.0 mi West 12.7 mph - N/A   Scattered Clouds
11:56 AM 75.0 °F 59.0 °F 57% 29.93 in 10.0 mi West 11.5 mph - N/A   Scattered Clouds
12:56 PM 75.9 °F 59.0 °F 56% 29.93 in 10.0 mi West 12.7 mph - N/A   Scattered Clouds
1:56 PM 75.9 °F 57.9 °F 54% 29.91 in 10.0 mi West 12.7 mph - N/A   Scattered Clouds
2:56 PM 75.9 °F 57.0 °F 52% 29.90 in 10.0 mi West 13.8 mph - N/A   Scattered Clouds
3:56 PM 75.9 °F 57.0 °F 52% 29.90 in 10.0 mi West 15.0 mph - N/A   Scattered Clouds
4:56 PM 75.0 °F 57.0 °F 53% 29.89 in 10.0 mi West 12.7 mph - N/A   Scattered Clouds
6:56 PM 71.6 °F 57.2 °F 60% 29.89 in 6.2 mi West 10.4 mph - N/A   Scattered Clouds
8:56 PM 66.0 °F 57.9 °F 75% 29.92 in 10.0 mi WNW 4.6 mph - N/A Rain Light Rain
9:56 PM 64.9 °F 57.9 °F 78% 29.93 in 10.0 mi Calm Calm - N/A   Partly Cloudy
10:56 PM 64.0 °F 57.0 °F 78% 29.93 in 10.0 mi NNE 3.5 mph - N/A   Clear
11:56 PM 64.0 °F 55.9 °F 75% 29.93 in 10.0 mi NE 3.5 mph - N/A   Clear